Regional Weather Roundup
Issued by NWS

Home | Current Version | Previous Version | Text Only | Print | Product List | Glossary On
Versions: 1 2 3 4 5 6 7 8 9 10 11 12 13 14 15 16 17 18 19 20 21 22 23 24 25 26 27 28 29 30 31 32 33 34 35 36 37 38 39 40 41 42 43 44 45 46 47 48 49 50
000
ASUS43 KOAX 230802
RWRNE

WEATHER ROUNDUP FOR NEBRASKA
NATIONAL WEATHER SERVICE OMAHA NE
300 AM CDT MON OCT 23 2017

NOTES: SATELLITE DATA IS BEING USED TO AUGMENT CLOUD COVER ABOVE
       12000 FEET.
       "FAIR" INDICATES FEW OR NO CLOUDS BELOW 12,000 FEET WITH NO
       SIGNIFICANT WEATHER AND/OR OBSTRUCTIONS TO VISIBILITY.


NEZ001>004-019>022-054>056-230900-
NEBRASKA PANHANDLE

CITY           SKY/WX    TMP DP  RH WIND       PRES   REMARKS
SCOTTSBLUFF    CLOUDY    55  33  43 N21G31    30.14R
ALLIANCE       CLOUDY    54  33  45 N26G36    30.10R
CHADRON        LGT RAIN  48  39  71 NW15G30   30.19R
GORDON         RAIN      49  40  69 N21G28    30.10R
KIMBALL        CLEAR     58  29  34 W33G39    30.13R
SIDNEY         CLEAR     57  31  37 NW18      30.11R
$$

NEZ057>060-069>072-079>082-230900-
SOUTHWEST NEBRASKA

CITY           SKY/WX    TMP DP  RH WIND       PRES   REMARKS
NORTH PLATTE   CLEAR     39  34  82 N10       30.01R WCI  32
IMPERIAL       CLEAR     45  32  60 W10       30.03S
LEXINGTON      CLEAR     41  33  74 NW7       29.95S
MCCOOK         CLEAR     45  30  55 W8        30.00S
OGALLALA       CLEAR     46  34  62 W6        30.01S
$$

NEZ005>010-023>029-035>040-094-230900-
NORTH CENTRAL NEBRASKA

CITY           SKY/WX    TMP DP  RH WIND       PRES   REMARKS
VALENTINE      CLOUDY    56  40  55 NW13G21   30.01R
AINSWORTH      CLOUDY    55  40  57 N17G24    29.98R
BROKEN BOW     CLEAR     56  35  45 NW16      29.95R
O`NEILL        CLOUDY    58  37  45 NW25G32   29.91R
ORD            PTCLDY    52  38  58 NW9       29.90R
THEDFORD       CLEAR     57  37  47 N18G26    30.02R
$$

NEZ041-046>049-061>064-073>077-083>087-230900-
SOUTH CENTRAL NEBRASKA

CITY           SKY/WX    TMP DP  RH WIND       PRES   REMARKS
GRAND ISLAND   CLEAR     49  31  49 SW10      29.89F
AURORA         CLEAR     47  31  53 SW8       29.89F
HASTINGS       CLEAR     47  30  51 SW5       29.92F
HEBRON         CLEAR     52  30  43 SW6       29.93S
HOLDREGE       CLEAR     52  30  42 W10       29.93F
KEARNEY        CLEAR     50  29  44 W7        29.92F
YORK           PTCLDY    46  32  57 S7        29.89F
$$

NEZ011>018-030>034-042>045-230900-
NORTHEAST NEBRASKA

CITY           SKY/WX    TMP DP  RH WIND       PRES   REMARKS
NORFOLK        PTCLDY    52  32  46 SW6       29.84F
ALBION         MOCLDY    54  32  43 W7        29.87R
BLAIR          CLOUDY    50  33  52 S10       29.88F
COLUMBUS       CLOUDY    52  31  44 SW8       29.87F
FREMONT        CLEAR     53  32  45 S5        29.88F
TEKAMAH        CLEAR     45  34  65 SE8       29.87F
WAYNE          CLOUDY    51  31  47 S8        29.84S
$$

NEZ050>053-065>068-078-088>093-230900-
SOUTHEAST NEBRASKA

CITY           SKY/WX    TMP DP  RH WIND       PRES   REMARKS
LINCOLN        PTCLDY    52  32  46 S7        29.91F
OMAHA EPPLEY   CLOUDY    48  36  63 SE12      29.91F
BEATRICE       CLEAR     47  33  57 S6        29.93F
FALLS CITY     CLEAR     48  35  60 S8        29.96R
NEBRASKA CITY  PTCLDY    48  35  60 SW10      29.93F
PLATTSMOUTH    PTCLDY    49  34  56 S8        29.92F
$$

NEZ044-045-051>053-067-230900-
OMAHA AREA

CITY           SKY/WX    TMP DP  RH WIND       PRES   REMARKS
OMAHA EPPLEY   CLOUDY    48  36  63 SE12      29.91F
BLAIR          CLOUDY    50  33  52 S10       29.88F
FREMONT        CLEAR     53  32  45 S5        29.88F
MILLARD        PTCLDY    48  35  60 SE6       29.90F
OFFUTT AFB     PTCLDY    42  35  76 E6        29.91F
PLATTSMOUTH    PTCLDY    49  34  56 S8        29.92F
WAHOO          FAIR      46  34  64 S7        29.88F
$$




USA.gov is the U.S. government's official web portal to all federal, state and local government web resources and services.